Location: Chassagnes
(44.4047°N, 4.1657°E)
Time: 12:23:29
(UTC+00:00)

SeaSat 1 - Pass Details

Date: 27 October 2020
Orbit: 744 x 747 km, 108.0° (Epoch: 23 November)

Event Time Altitude Azimuth Distance (km) Brightness Sun altitude
Exits shadow 17:46:28 17° 73° (ENE) 1,821 3.8 -12.6°
Maximum altitude 17:48:09 20° 46° (NE) 1,670 3.8 -12.9°
Drops below altitude 10° 17:51:43 10° 0° (N) 2,274 4.9 -13.5°
Sets 17:54:29 0° 344° (NNW) 3,202 5.9 -14.0°
